Location: Sankt Anna
(58.3452°N, 16.7040°E)
Time: 17:34:39
(UTC+02:00)

DX 1 - Visible Passes

Search period start: 25 May 2019 00:00
Search period end: 04 June 2019 00:00
Orbit: 620 x 630 km, 98.4° (Epoch: 25 May)

Date Brightness Start Highest point End Pass type
(mag) Time Alt. Az. Time Alt. Az. Time Alt. Az.
25 May ? 01:27:58 10° ENE 01:30:02 13° NE 01:32:07 10° NNE visible
25 May ? 03:01:06 10° SE 03:05:19 50° ENE 03:09:35 10° N visible
26 May ? 01:45:54 10° E 01:48:40 17° NE 01:51:27 10° N visible
27 May ? 02:04:02 10° E 02:07:20 21° NE 02:10:38 10° N visible
28 May ? 02:22:20 10° ESE 02:26:02 27° NE 02:29:45 10° N visible
29 May ? 01:09:15 10° NE 01:09:43 10° NE 01:10:10 10° NNE visible
29 May ? 02:40:47 10° SE 02:44:46 36° ENE 02:48:48 10° N visible
30 May ? 01:26:21 10° ENE 01:28:18 13° NE 01:30:15 10° NNE visible
31 May ? 01:44:14 10° E 01:46:55 16° NE 01:49:37 10° N visible
01 Jun ? 02:02:21 10° E 02:05:34 20° NE 02:08:49 10° N visible
02 Jun ? 02:20:38 10° ESE 02:24:17 26° NE 02:27:56 10° N visible
03 Jun ? 02:39:03 10° ESE 02:43:01 34° ENE 02:46:59 10° N visible
